Location: ?????
(33.1097°N, 35.3811°E)
Time: 07:52:41
(UTC+00:00)

Daily predictions for brighter satellites

Satellite Brightness Start Highest point End
(mag) Time Altitude Azimuth Time Altitude Azimuth Time Altitude Azimuth
STARLINK-1133 4.1 16:59:44 10° NNW 17:03:45 49° NE 17:07:46 10° ESE
Cosmos 1184 Rocket 3.3 17:01:44 10° NNW 17:04:55 61° W 17:08:03 10° S
NOSS 2-3 (C) 4.4 17:01:45 10° S 17:05:17 27° ESE 17:09:01 10° NE
STARLINK-1254 3.7 17:02:27 10° SSW 17:06:29 58° SE 17:10:33 10° NE
Meteor 1-11 Rocket 3.8 17:01:11 10° N 17:06:46 64° E 17:12:14 10° SSE
STARLINK-1139 4.0 17:04:41 10° NW 17:08:45 55° NE 17:12:48 10° ESE
Cosmos 1666 3.2 17:06:34 10° N 17:10:14 40° E 17:13:50 10° SSE
STARLINK-1231 3.6 17:07:24 10° SSW 17:11:29 66° SE 17:15:35 10° NE
STARLINK-1174 3.8 17:09:37 10° NW 17:13:44 61° NE 17:17:48 10° SE
H-2A R/B 2.0 17:11:19 10° SSE 17:16:16 90° ENE 17:21:22 10° NNW
STARLINK-1232 3.5 17:12:19 10° SW 17:16:26 75° SE 17:20:34 10° NE
OAO 3 Copernicus 4.4 17:11:39 10° WNW 17:16:45 86° NNE 17:21:48 10° ESE
STARLINK-1149 3.7 17:14:34 10° NW 17:18:41 68° NE 17:22:34 11° SE
Cosmos 1536 3.0 17:15:48 10° N 17:19:48 55° E 17:23:47 10° SSE
STARLINK-1208 3.6 17:17:16 10° SW 17:21:24 84° SE 17:25:33 10° NE
Cosmos 2242 Rocket 4.0 17:17:33 10° SSE 17:21:41 42° E 17:25:50 10° NNE
Cosmos 1844 3.7 17:16:31 10° SSW 17:22:07 82° ESE 17:27:50 10° NNE
CZ-2C R/B 3.4 17:17:47 10° S 17:23:02 77° W 17:28:36 10° NNW
STARLINK-1180 3.6 17:19:34 10° NW 17:23:42 77° NE 17:27:23 13° SE
GOES 2 Rocket 4.4 17:16:42 10° W 17:24:52 60° S 17:30:44 11° ESE
STARLINK-1271 3.6 17:22:15 10° SW 17:26:23 87° NW 17:30:32 10° NE
SJ-6B 2.7 17:24:08 10° SSE 17:27:51 64° ENE 17:31:34 10° N
STARLINK-1153 3.6 17:24:31 10° NW 17:28:40 86° NE 17:32:09 14° SE
Meteor 1-4 Rocket 4.4 17:30:48 12° E 17:31:14 13° E 17:32:50 10° ENE
STARLINK-1154 3.8 17:27:15 10° SW 17:31:23 78° NW 17:35:31 10° NE
STARLINK-1132 3.6 17:29:30 10° NW 17:33:38 85° SW 17:36:56 16° SE
ERBS 3.4 17:33:38 10° S 17:36:17 23° ESE 17:38:57 10° ENE
STARLINK-1197 3.9 17:32:13 10° SW 17:36:20 70° NW 17:40:28 10° NE
CZ-2C R/B 3.6 17:32:41 10° NNE 17:37:09 77° E 17:41:41 10° S
STARLINK-1177 3.7 17:34:29 10° NW 17:38:37 75° SW 17:41:43 17° SE
SL-08 RB Rocket 3.7 17:35:10 10° SSE 17:39:48 90° W 17:44:25 10° NNW
STARLINK-1198 4.2 17:37:13 10° SW 17:41:18 62° NW 17:45:24 10° NE
Hubble Space Telescope 1.2 17:38:24 10° WSW 17:42:19 42° S 17:44:52 19° ESE
Ariane Rocket 3.7 17:38:09 10° S 17:43:06 55° W 17:48:05 10° NNW
STARLINK-1167 3.8 17:39:29 10° NW 17:43:35 67° SW 17:46:30 18° SSE
Cosmos 2251 Rocket 3.5 17:38:22 10° NNW 17:43:38 88° WSW 17:48:37 11° SSE
STARLINK-1199 4.4 17:42:15 10° WSW 17:46:18 55° NW 17:50:23 10° NE
DMSP B5D2-2 4.1 17:42:00 10° NNE 17:47:18 87° WNW 17:52:34 10° SSW
STARLINK-1168 4.0 17:44:29 10° NW 17:48:33 59° SW 17:51:18 19° SSE
Cosmos 44 Rocket 3.7 17:48:16 10° NNW 17:53:03 50° ENE 17:55:58 23° SE
STARLINK-1164 4.1 17:49:30 10° NW 17:53:31 52° SW 17:56:05 20° SSE
STARLINK-1200 4.5 17:50:16 10° S 17:53:46 27° SE 17:57:18 10° ENE
Okean 1-7 3.0 17:50:02 11° S 17:53:59 57° E 17:58:11 10° NNE
Cosmos 1733 Rocket 4.0 17:50:26 10° NNW 17:54:38 47° W 17:58:46 10° SSW
Cosmos 2034 Rocket 3.9 17:50:51 10° N 17:57:01 72° E 18:02:16 14° SSE
SEDSat Delta rocket 4.0 17:50:25 10° W 17:57:14 78° S 18:02:20 18° E
STARLINK-1182 4.3 17:54:30 10° WNW 17:58:29 46° SW 18:00:52 21° SSE
Cosmos 2056 Rocket 3.4 17:53:37 10° S 17:58:38 60° ESE 18:03:40 10° NNE
STARLINK-1192 4.3 17:55:04 10° S 17:58:43 31° SE 18:02:23 10° ENE
Cosmos 1607 4.0 17:53:08 10° NNW 17:59:34 85° ENE 18:04:08 21° SSE
MetOp-A 4.2 17:56:51 13° SSE 18:01:43 84° WSW 18:07:05 10° NNW
STARLINK-1244 4.2 17:59:55 10° SSW 18:03:39 34° SE 18:07:25 10° ENE
NOSS 2-3 (E) 4.1 18:00:44 10° SW 18:04:50 60° WNW 18:09:21 10° NNE
Cosmos 1816 Rocket 4.4 17:59:08 10° S 18:05:16 89° ESE 18:11:26 10° N
Cosmos 389 Rocket 3.2 18:04:02 10° SSW 18:07:23 52° W 18:10:46 10° N
Cosmos 1743 2.6 18:04:41 10° N 18:08:29 72° E 18:10:05 33° SSE
STARLINK-1138 4.0 18:04:45 10° SSW 18:08:36 38° SE 18:12:28 10° ENE
Resurs 01 Rocket 1.7 18:07:35 28° SSE 18:09:48 64° ENE 18:14:13 10° N
BREEZE M DEB (TANK) 4.0 17:57:27 10° SW 18:10:19 80° NW 18:13:55 10° NE
ASTEX 1 4.0 18:05:56 10° S 18:10:42 56° W 18:15:31 10° NNW
Cosmos 1833 Rocket 4.5 18:07:45 10° NNE 18:11:15 17° ENE 18:13:14 14° E
STARLINK-1203 3.8 18:09:34 10° SSW 18:13:34 45° SE 18:17:34 10° ENE
STARLINK-1143 3.9 18:09:39 10° SSW 18:13:34 43° SE 18:17:30 10° ENE
STARLINK-1148 4.3 18:11:47 10° NNW 18:15:44 42° NE 18:17:06 31° E
Delta 128 4.3 18:10:05 10° WSW 18:15:56 51° S 18:17:59 33° SE
CZ-2C R/B 3.7 18:11:01 10° N 18:16:25 50° WNW 18:21:49 10° SSW
STARLINK-1241 3.7 18:14:32 10° SSW 18:18:31 49° SE 18:22:31 10° NE
Meteor 2-9 Rocket 4.4 18:15:26 10° N 18:20:38 49° E 18:22:27 35° SE
Sich 1 Rocket 4.3 18:16:26 10° NNE 18:20:41 37° E 18:21:26 34° ESE
STARLINK-1158 4.2 18:16:44 10° NNW 18:20:44 47° NE 18:21:54 36° E
Cosmos 371 Rocket 4.2 18:21:36 29° E 18:21:36 29° E 18:25:30 10° NE
STARLINK-1239 3.6 18:19:28 10° SSW 18:23:29 56° SE 18:27:33 10° NE
Cosmos 1703 Rocket 4.4 18:20:44 10° SSW 18:24:54 48° W 18:29:06 10° N
Cosmos 1782 Rocket 3.5 18:20:44 10° N 18:25:12 67° E 18:26:30 43° SSE
STARLINK-1162 4.0 18:21:39 10° NW 18:25:42 53° NE 18:26:40 42° E
Cosmos 1356 3.2 18:24:02 10° N 18:27:28 73° E 18:27:38 71° ESE
STARLINK-1240 3.5 18:24:23 10° SSW 18:28:27 63° SE 18:32:33 10° NE
Cosmos 1452 Rocket 4.0 18:29:07 37° ESE 18:29:34 38° E 18:34:25 10° NE
Orbus 7S 4.3 18:25:42 10° W 18:30:05 29° SSW 18:30:05 29° SSW
GPS 2-04 Rocket1 3.6 18:27:33 10° SW 18:29:38 30° SSW 18:29:38 30° SSW
Cosmos 2278 Rocket 2.1 18:25:50 10° SSW 18:31:29 80° ESE 18:37:11 10° NNE
Cosmos 1975 2.7 18:28:40 10° N 18:32:43 71° E 18:33:14 61° SE
STARLINK-1216 3.4 18:29:18 10° SW 18:33:24 71° SE 18:37:32 10° NE
Meteor 1-19 Rocket 4.5 18:28:28 10° SSW 18:33:57 68° W 18:39:38 10° N
Cosmos 1420 Rocket 3.9 18:32:58 32° S 18:35:20 67° ESE 18:40:30 10° NNE
STARLINK-1159 3.6 18:31:35 10° NW 18:35:42 66° NE 18:36:15 58° E
Okean 2 Rocket 4.0 18:32:22 10° NNE 18:36:07 31° ENE 18:36:07 31° ENE
Cosmos 1634 Rocket 4.0 18:31:59 10° N 18:38:16 67° E 18:40:42 39° SSE
STARLINK-1237 3.4 18:34:16 10° SW 18:38:23 80° SE 18:42:31 10° NE
Cosmos 407 Rocket 3.4 18:33:41 10° NNW 18:39:02 82° ENE 18:40:41 46° SSE
Orbus 7S 4.4 18:35:57 10° WSW 18:39:20 43° SSE 18:39:29 42° SSE
VEP-3 4.2 18:35:26 10° SSW 18:38:42 19° S 18:38:42 19° S
STARLINK-1171 3.5 18:36:33 10° NW 18:40:41 74° NE 18:41:03 68° E
SPOT 5 4.1 18:42:24 27° ENE 18:42:49 27° ENE 18:47:10 10° NNE
STARLINK-1202 3.5 18:39:14 10° SW 18:43:22 89° SE 18:47:31 10° NE
STARLINK-1155 3.4 18:41:30 10° NW 18:45:39 83° NE 18:45:49 80° E
STARLINK-1157 4.3 18:45:54 10° WNW 18:48:23 35° W 18:48:23 35° W
STARLINK-1166 3.5 18:46:28 10° NW 18:50:36 88° WSW 18:50:36 88° WSW
SPOT 1/Viking Rocket 3.7 18:50:40 51° ESE 18:51:22 56° ENE 18:56:25 10° N
STARLINK-1246 3.7 18:49:11 10° SW 18:53:18 73° NW 18:57:27 10° NE
STARLINK-1165 3.6 18:51:28 10° NW 18:55:23 75° W 18:55:23 75° W
H-2A ROCKET BODY 3.9 18:55:44 36° SSE 18:56:41 37° SE 19:19:50 10° E
Landsat 7 3.6 18:56:37 71° SE 18:57:02 79° ENE 19:01:49 10° N
STARLINK-1224 3.9 18:54:12 10° SW 18:58:18 65° NW 19:02:24 10° NE
Meteor 1-12 Rocket 4.3 18:54:20 10° N 18:59:56 60° E 19:00:34 56° ESE
STARLINK-1169 3.8 18:56:27 10° NW 19:00:10 64° W 19:00:10 64° W
Cosmos 1190 Rocket 4.0 18:56:41 10° NNW 19:01:53 73° WSW 19:02:47 59° SSW
STARLINK-1225 4.1 18:59:12 10° WSW 19:03:16 58° NW 19:07:21 10° NE
STARLINK-1178 4.1 19:01:26 10° NW 19:04:57 54° W 19:04:57 54° W
CARTOSAT-1 4.3 19:07:48 44° NE 19:07:48 44° NE 19:11:13 10° N
Meteor 2-4 Rocket 4.2 19:05:14 27° SW 19:08:01 53° W 19:13:15 10° N
STARLINK-1230 4.4 19:04:14 10° WSW 19:08:16 52° NW 19:12:19 10° NE
Meteor 1-13 Rocket 4.1 19:08:10 57° SSW 19:09:23 86° W 19:15:02 10° N
Cosmos 1140 Rocket 3.6 19:05:12 10° NNW 19:10:22 68° WSW 19:11:00 61° SW
STARLINK-1120 4.4 19:06:26 10° NW 19:09:43 46° W 19:09:43 46° W
COSMOS 2406 3.1 19:06:25 10° NNW 19:12:13 88° WSW 19:12:56 70° SSE
IGS 5A 3.9 19:14:34 57° WNW 19:14:34 57° WNW 19:18:17 10° NNW
Cosmos 332 Rocket 3.9 19:14:50 69° NE 19:14:50 69° NE 19:19:13 10° NNE
Cosmos 724 4.3 19:13:32 10° NNW 19:19:25 68° WSW 19:20:11 61° SSW
ERS-1 Rocket 2.9 19:20:22 77° NE 19:20:22 77° NE 19:25:11 10° N
Hubble Space Telescope 3.2 19:19:25 10° WSW 19:20:11 15° WSW 19:20:11 15° WSW
ATLAS 3B CENTAUR R/B 3.5 19:14:45 10° WSW 19:23:24 38° SSW 19:23:24 38° SSW
SeaSat 1 3.7 19:22:35 10° NE 19:25:14 30° NE 19:25:14 30° NE
Spot 2 Rocket 4.3 19:27:44 38° WSW 19:28:20 40° W 19:33:04 10° NNW
Cosmos 1954 Rocket 4.0 19:23:22 10° NNW 19:28:31 73° W 19:28:31 73° W
Cosmos 2297 4.0 19:29:39 54° ENE 19:29:39 54° ENE 19:34:15 10° NNE
Cosmos 1300 Rocket 4.4 19:29:44 10° NNW 19:33:20 50° NW 19:33:20 50° NW
Terra 2.5 19:42:51 52° N 19:42:51 52° N 19:46:28 10° N
SEDSat Delta rocket 4.4 19:37:17 10° W 19:42:26 46° WSW 19:42:26 46° WSW
Cosmos 972 Rocket 4.3 19:44:58 86° N 19:44:58 86° N 19:51:17 10° NNE
Cosmos 2082 Rocket 2.4 19:43:16 10° NNW 19:48:19 63° NNE 19:48:19 63° NNE
Nadezhda 4 Rocket 3.9 19:52:36 74° W 19:52:43 75° W 19:58:52 10° N
Lacrosse 5 3.2 19:49:20 10° NNW 19:53:20 33° NNE 19:53:20 33° NNE
Cosmos 1833 Rocket 3.1 19:50:02 10° NNW 19:54:56 55° W 19:54:56 55° W
Cosmos 2369 Rocket 4.1 20:00:01 19° NE 20:00:01 19° NE 20:01:55 10° NE
Cosmos 1943 Rocket 3.5 20:06:48 30° NE 20:06:48 30° NE 20:09:41 10° NNE
Thor Agena Rocket 4.5 20:12:10 10° NNE 20:15:47 45° NNE 20:15:47 45° NNE
Cosmos 1092 Rocket 4.4 20:32:25 54° NW 20:32:25 54° NW 20:37:46 10° N
ATLAS 2AS CENTAUR R/B 3.2 21:04:34 61° ENE 21:04:34 61° ENE 21:11:15 10° NE
FALCON 9 R/B 4.2 21:21:03 29° E 21:21:03 29° E 21:27:11 10° ENE
NOSS 3-2 (A) 4.3 21:10:11 10° NNW 21:17:58 62° ENE 21:18:24 61° ENE
USA 238 DEB 4.1 21:18:25 10° NNW 21:25:11 65° NE 21:25:11 65° NE
USA 238 4.1 21:18:31 10° NNW 21:25:18 64° NE 21:25:18 64° NE
Cosmos 2369 Rocket 3.8 21:41:46 28° NW 21:41:46 28° NW 21:45:46 10° N
ATLAS CENTAUR R/B 4.3 21:46:57 14° NNE 21:46:57 14° NNE 21:47:36 10° NNE
Cosmos 1943 Rocket 4.3 21:48:17 17° WNW 21:48:20 17° WNW 21:51:56 10° NNW
USA 215 4.0 22:00:55 42° WNW 22:00:55 42° WNW 22:05:06 10° NW
NOSS 3-2 (C) 4.0 22:15:36 10° NNW 22:23:06 79° WNW 22:23:06 79° WNW
COSMOS 2455 3.9 22:32:11 38° NW 22:32:11 38° NW 22:36:56 10° N
ATLAS 3B R/B 3.3 22:30:10 10° NNW 22:36:50 51° NE 22:38:27 43° E
CENTAUR R/B 3.1 22:31:49 10° NNW 22:40:06 76° WSW 22:40:06 76° WSW
CZ-4C R/B 3.9 22:52:49 21° E 22:52:49 21° E 22:55:23 10° ENE
Cosmos 2297 Rocket 4.4 22:51:03 10° NNE 22:55:12 20° ENE 22:59:18 10° ESE
SJ 16-02 4.0 22:55:33 10° NNE 22:57:52 14° ENE 22:59:12 12° E
USA 81 4.3 23:25:02 66° NNE 23:25:02 66° NNE 23:29:36 10° N
Cosmos 1697 Rocket 3.3 23:25:48 46° ESE 23:25:48 46° ESE 23:31:11 10° NNE
Nadezhda 1 Rocket 3.9 23:19:46 10° N 23:25:37 74° WNW 23:25:37 74° WNW
ADEOS II 3.1 23:21:14 10° NNE 23:26:03 36° E 23:26:20 35° ESE
CZ-2D R/B 2.4 23:23:01 10° N 23:27:27 62° NNW 23:27:27 62° NNW
Meteor 2-1 Rocket 4.2 23:23:20 10° N 23:28:41 74° ENE 23:28:41 74° ENE
ARIANE 5 R/B 4.3 23:26:27 10° NE 23:30:20 22° E 23:31:19 21° ESE
Cosmos 2227 Rocket 3.6 23:26:01 10° N 23:31:12 35° ENE 23:35:28 14° SE
Cosmos 468 Rocket 4.1 23:34:10 68° NNE 23:34:10 68° NNE 23:38:38 10° NNE
Resurs 1-4 Rocket 2.4 23:29:40 10° N 23:34:14 57° NW 23:34:14 57° NW
UNK 4.5 23:40:44 46° NNW 23:40:44 46° NNW 23:44:00 10° NNW
Cosmos 1825 Rocket 4.3 23:41:00 50° NE 23:41:00 50° NE 23:44:21 10° NNE
SL-16 R/B 2.3 23:42:09 74° SW 23:42:23 75° WSW 23:48:34 10° NNW
ATLAS CENTAUR R/B 4.4 23:39:44 10° N 23:43:12 30° ENE 23:50:29 10° ESE
Cosmos 1656 3.9 23:46:57 57° WNW 23:46:57 57° WNW 23:52:28 10° NNE
NPP 3.9 23:42:26 10° N 23:47:27 55° WNW 23:47:27 55° WNW
Timation 2 Rocket 4.4 23:43:28 10° NNW 23:48:20 45° WNW 23:48:20 45° WNW
